Overview Statistics Trail Chart Weather Telemetry Raw packets
 

This is the latest recevied weather packets stored in our database for station/object K7SKM. If no packets are shown the sender has not sent any weather packets the latest 10 day(s).

<< 67 68 69 70 71 72 73 >>
Time Temp. Humidity Pressure Rain* Wind** Luminosity Snow
1788205750 24.44° C 47% 1015.8 hPa 0 mm - 406 W/m² -
1788205446 23.89° C 48% 1015.8 hPa 0 mm - 398 W/m² -
1788205145 23.89° C 48% 1015.8 hPa 0 mm - 400 W/m² -
1788204840 23.89° C 48% 1015.8 hPa 0 mm - 395 W/m² -
1788204535 22.78° C 50% 1015.9 hPa 0 mm - 384 W/m² -
1788204235 22.22° C 52% 1015.9 hPa 0 mm - 382 W/m² -
1788203931 22.78° C 51% 1016.1 hPa 0 mm - 383 W/m² -
1788203627 22.78° C 51% 1016.3 hPa 0 mm - 380 W/m² -
1788203323 23.89° C 48% 1016.3 hPa 0 mm - 378 W/m² -
1788203022 22.78° C 50% 1016.4 hPa 0 mm - 373 W/m² -
1788202722 22.22° C 51% 1016.5 hPa 0 mm - 357 W/m² -
1788202418 23.33° C 48% 1016.5 hPa 0 mm - 370 W/m² -
1788202117 23.89° C 48% 1016.5 hPa 0 mm - 371 W/m² -
1788201812 21.67° C 54% 1016.9 hPa 0 mm - 360 W/m² -
1788201508 21.67° C 51% 1017 hPa 0 mm - 219 W/m² -
1788201207 22.78° C 51% 1016.8 hPa 0 mm - 307 W/m² -
1788200906 22.22° C 51% 1016.7 hPa 0 mm - 255 W/m² -
1788200602 21.67° C 54% 1016.9 hPa 0 mm - 303 W/m² -
1788200297 22.78° C 52% 1017.1 hPa 0 mm - 216 W/m² -
1788199992 22.78° C 51% 1017.1 hPa 0 mm - 263 W/m² -
1788199687 22.22° C 54% 1017.2 hPa 0 mm - 313 W/m² -
1788199381 22.22° C 53% 1017.1 hPa 0 mm - 301 W/m² -
1788199081 21.11° C 55% 1017.3 hPa 0 mm - 292 W/m² -
1788198777 22.22° C 53% 1017.3 hPa 0 mm - 290 W/m² -
1788198473 20.56° C 58% 1017.2 hPa 0 mm - 285 W/m² -

* Rain latest hour (hover to see other rain measurements)
** Current wind speed in m/s (hover to see current wind gust speed)